GFSSGP_250_spd_042.txt.gz
Wind_Speed
23 21 19 19 17 16 14 12 13 14 14 15 17 18 19 20 21 21 20 19 20 21 23 25 28 29 32 32 37 36 35 38 40 39 39 41 42 42 41 40 39 38 38 35 34 33 33 30 29
28 24 23 21 19 18 18 17 16 18 18 19 21 21 21 23 25 23 23 24 25 27 28 30 33 34 35 37 40 37 37 40 41 42 41 41 43 44 43 43 42 41 39 36 33 33 34 32 31
29 27 26 24 22 22 23 22 21 21 22 22 23 23 24 25 26 27 27 29 31 32 33 34 36 39 40 40 42 42 43 43 44 44 44 44 43 42 44 46 44 42 42 38 35 32 32 33 32
32 30 28 26 26 27 26 23 22 23 24 24 25 25 25 27 29 31 32 33 34 35 37 40 42 42 42 44 46 47 47 48 49 47 46 48 49 50 49 47 45 43 42 40 38 35 32 33 33
36 33 29 28 29 28 28 25 25 27 28 29 30 30 30 32 32 33 35 38 40 40 43 44 45 46 47 49 50 51 51 52 51 51 52 52 52 51 50 47 45 44 41 40 38 37 34 32 33
35 35 33 29 29 29 30 27 27 31 32 32 33 34 35 36 36 37 39 40 43 44 47 48 50 51 53 54 54 54 54 55 55 55 56 56 55 52 48 46 45 45 43 41 40 38 38 35 34
41 39 36 34 33 31 31 30 32 36 38 38 37 38 39 39 40 40 42 44 47 50 52 54 55 56 56 57 57 58 59 59 59 59 58 56 53 52 51 49 48 46 44 43 41 40 39 39 38
46 43 41 40 39 35 36 38 40 42 42 44 44 42 41 42 44 46 47 48 51 53 55 58 59 59 60 60 62 62 62 61 61 60 58 58 56 54 52 50 49 48 47 46 44 41 41 40 40
46 45 45 44 41 41 42 42 43 44 45 47 48 47 46 48 50 52 54 56 56 58 59 60 61 62 63 64 64 64 64 63 62 61 59 57 56 55 53 52 51 51 50 49 47 45 44 43 42
47 46 46 45 42 43 45 45 45 46 47 49 51 51 52 54 56 58 59 60 62 63 63 62 63 64 64 65 65 65 63 63 62 60 59 58 56 54 53 52 51 50 50 51 50 50 48 46 45
50 48 47 46 46 46 47 47 48 49 50 51 54 56 58 60 61 62 63 62 63 64 64 64 62 63 63 63 63 63 62 60 58 56 54 51 49 48 47 47 48 47 47 47 48 50 51 51 49
50 48 49 49 49 47 48 51 53 54 55 55 56 58 60 62 63 64 66 66 65 65 64 64 64 63 64 63 62 59 56 50 47 45 44 46 47 49 50 51 51 51 50 50 50 49 49 50 52
50 49 48 48 49 48 49 51 54 56 56 57 58 59 58 59 63 64 65 65 63 63 63 64 65 63 60 58 55 49 44 43 45 48 50 51 51 53 54 54 55 56 55 54 55 55 55 54 53
54 53 51 51 50 50 50 52 53 53 54 55 56 58 61 63 64 63 60 61 62 63 65 67 62 58 54 51 46 44 46 47 48 50 52 54 55 56 57 58 59 59 59 60 61 63 62 61 60
56 55 54 53 53 53 54 55 57 57 58 60 63 64 63 62 61 61 60 62 64 66 65 61 58 54 49 48 49 51 52 55 57 58 60 61 62 63 63 64 63 64 65 66 66 67 67 66 66
58 57 57 56 56 57 57 58 59 60 61 61 61 63 62 62 63 63 64 65 65 62 60 57 51 48 49 52 54 57 59 62 65 67 68 69 69 70 70 71 72 73 70 70 75 74 74 74 72
55 54 53 54 57 56 56 59 59 59 60 61 62 63 64 64 64 65 65 64 60 57 53 51 49 51 54 57 60 62 65 68 70 72 74 75 75 76 76 77 79 81 81 81 78 79 80 79 78
52 53 53 54 57 56 56 58 57 58 61 64 64 65 65 65 65 64 63 61 57 52 52 50 51 55 59 63 67 71 74 76 77 79 80 81 81 81 83 84 86 87 89 90 91 87 85 84 84
54 54 53 54 55 55 56 58 61 64 66 65 65 66 65 65 63 62 59 56 53 52 53 55 58 61 65 69 73 76 76 78 81 84 86 88 89 89 90 91 94 95 96 97 98 96 96 93 91
62 61 62 62 62 63 64 66 66 68 67 65 65 65 65 64 63 60 58 55 53 54 57 60 65 69 74 77 80 82 84 85 86 86 87 89 92 94 97 101 104 105 104 104 104 104 102 100 101
62 61 60 61 63 64 65 66 67 67 67 65 64 63 63 62 61 60 58 57 58 61 64 68 72 77 79 81 83 87 89 90 91 92 95 98 99 100 101 105 108 109 108 109 110 110 111 110 106
61 61 61 64 65 64 64 62 66 66 64 62 62 62 61 60 59 61 61 60 62 66 71 75 77 80 81 84 88 90 92 95 98 101 103 107 109 111 113 113 112 111 111 112 114 116 118 116 114
58 59 61 61 59 59 60 59 62 63 61 60 59 58 56 57 59 59 61 65 69 72 75 78 80 84 88 93 95 97 99 102 104 107 111 114 117 118 119 119 120 122 123 121 119 118 116 115 115
54 55 56 57 57 57 57 57 59 60 59 57 56 54 56 57 59 63 66 70 74 76 79 83 88 93 97 100 103 105 106 108 111 114 117 119 121 122 124 127 127 125 124 124 123 119 114 110 106
52 54 54 54 55 54 55 55 58 57 57 54 54 55 59 63 65 67 71 74 78 83 89 93 97 100 104 107 110 112 114 116 117 120 120 122 124 127 126 124 123 121 119 117 116 114 112 110 106
47 47 49 50 52 53 54 55 55 57 55 54 57 59 63 67 69 72 76 81 87 92 97 101 104 107 110 112 114 116 119 122 124 124 125 128 127 122 118 117 116 115 114 113 112 110 109 108 107
47 50 51 52 52 52 53 55 57 56 56 59 61 65 69 71 74 80 85 89 93 98 103 106 109 112 114 116 118 121 125 126 127 129 131 126 121 118 115 113 111 108 106 105 105 102 101 102 101
49 50 51 52 53 53 52 54 62 61 63 66 69 72 74 78 83 86 90 95 100 104 108 111 113 115 117 120 123 126 128 131 132 132 128 125 122 118 113 107 101 99 98 98 98 95 93 93 91
50 51 52 53 55 55 55 55 65 66 69 72 74 78 81 85 86 91 98 103 106 109 111 113 115 119 122 125 127 129 131 134 132 130 128 125 121 114 108 102 97 92 91 92 93 92 91 90 87
52 54 55 55 56 59 59 56 71 72 75 75 81 85 86 90 95 101 105 108 110 111 112 115 119 124 127 128 130 131 135 131 130 127 126 123 115 110 103 99 93 89 86 86 84 85 87 85 82

GFSSGP_250_spd_048.txt.gz
Wind_Speed
28 24 21 22 21 22 18 17 17 16 16 16 15 18 19 20 21 23 24 24 24 24 26 27 28 30 31 33 34 36 37 39 40 42 44 44 43 43 43 43 42 43 43 42 40 37 35 32 30
31 28 25 22 24 24 22 20 20 19 19 19 19 22 22 25 25 25 25 25 26 26 28 30 31 33 35 35 37 40 41 43 44 46 46 47 47 47 47 47 47 47 46 45 41 37 35 32 30
32 30 28 25 27 25 24 24 24 24 23 23 23 24 25 27 27 27 27 28 29 31 32 33 34 36 37 39 42 44 46 47 49 50 51 52 51 51 51 51 51 49 47 46 42 40 37 34 32
32 30 29 27 27 28 27 28 27 27 27 27 27 28 29 29 31 31 30 30 33 34 36 39 40 40 42 44 48 50 50 51 53 54 55 55 55 54 54 52 50 49 47 44 41 39 38 36 33
35 33 31 31 31 31 31 31 29 30 31 30 29 31 32 32 31 33 36 37 38 40 40 41 42 45 48 51 53 52 54 56 57 58 58 58 57 55 52 49 47 47 45 44 42 40 38 36 34
39 37 34 32 33 32 33 34 33 33 33 33 31 34 32 33 35 40 43 44 43 44 46 46 49 51 53 55 56 57 59 60 61 60 59 57 55 52 50 49 48 46 44 42 42 41 40 39 37
44 43 39 36 36 36 36 36 36 36 36 36 34 36 35 39 43 44 44 46 48 48 49 53 54 56 57 58 60 61 62 62 61 59 54 53 52 51 48 46 44 41 38 35 34 33 32 33 35
47 44 43 41 42 39 40 40 37 38 38 39 40 38 43 44 46 48 48 49 51 53 54 56 59 58 61 61 62 63 61 58 56 55 53 54 51 47 47 40 33 26 26 24 25 26 27 27 26
48 47 42 44 42 42 43 43 43 45 45 46 45 47 47 48 49 51 52 53 55 57 58 59 60 60 62 63 65 62 62 56 54 52 53 48 48 47 40 34 30 29 26 29 31 28 29 29 29
49 46 49 48 47 47 46 47 47 48 50 50 50 49 49 51 52 53 55 56 57 58 61 61 61 61 64 66 64 62 59 56 54 54 50 49 45 39 35 33 31 31 34 35 36 37 35 35 35
51 50 50 50 50 50 51 53 53 53 53 52 52 53 53 53 54 56 57 57 58 60 61 61 63 64 63 64 63 61 58 56 54 51 46 41 37 34 35 34 36 38 40 42 43 44 43 44 44
53 54 54 54 54 54 53 54 54 55 56 55 56 56 56 56 55 57 58 59 60 62 64 64 63 63 64 64 62 61 58 56 52 47 43 38 35 36 38 38 42 44 46 48 50 50 49 50 50
52 54 54 54 54 55 55 56 57 57 57 58 57 57 57 57 59 61 63 63 64 65 65 64 63 66 64 63 62 59 57 54 50 45 41 40 39 41 44 46 47 51 53 55 55 56 55 56 57
56 55 55 53 54 55 55 57 58 58 57 57 57 58 60 62 64 65 66 67 66 65 65 63 66 65 64 62 61 59 57 53 49 46 44 45 45 46 48 50 53 56 57 58 60 61 61 63 64
57 57 59 58 59 59 59 59 60 58 59 60 62 63 64 66 68 69 67 66 65 65 65 68 69 66 65 63 61 59 57 52 50 48 49 50 51 53 55 57 61 62 63 62 61 65 67 66 66
60 60 61 61 60 62 62 62 65 63 65 66 66 68 69 71 69 67 67 66 65 67 70 73 70 68 66 64 62 59 57 54 53 53 54 55 56 58 61 64 66 66 67 67 69 71 71 72 73
60 61 61 62 64 64 66 66 68 68 69 69 68 69 68 66 67 68 66 67 70 72 73 71 70 69 66 64 62 59 57 56 57 58 59 61 62 65 68 69 70 71 74 77 79 81 81 80 79
58 59 61 59 56 63 62 66 62 65 65 65 64 64 66 67 69 71 73 74 75 74 73 72 71 69 68 66 63 61 59 60 61 61 63 65 69 71 73 74 74 79 83 86 88 89 89 88 86
58 58 60 63 56 59 59 59 59 63 62 63 64 65 69 73 76 77 77 76 77 75 73 73 71 69 68 66 63 62 63 65 66 68 71 75 77 79 82 82 87 93 95 98 98 96 97 96 93
55 56 57 58 58 59 59 64 64 69 70 71 73 73 76 78 78 78 78 78 77 74 73 71 69 69 67 64 62 63 65 67 69 73 77 80 82 85 87 90 95 99 103 105 105 104 103 101 104
65 63 64 63 63 66 67 69 70 71 73 74 75 75 75 76 76 77 79 78 77 73 71 71 70 69 66 64 64 66 69 72 76 81 84 87 90 92 97 100 104 107 108 107 106 105 104 105 106
67 67 68 68 69 71 73 72 75 78 77 76 76 76 77 78 78 79 78 76 75 72 72 72 72 70 68 67 68 70 73 77 82 86 88 92 97 100 104 108 112 116 116 113 109 110 111 114 115
65 67 68 68 70 70 74 73 76 78 78 77 78 78 79 79 79 77 75 73 72 72 73 72 72 71 71 71 74 76 79 84 87 90 94 98 103 108 112 116 117 118 114 113 116 120 123 124 124
67 69 71 71 73 74 74 76 74 73 78 76 76 76 76 75 73 72 73 73 74 73 73 74 74 73 75 76 80 84 88 90 92 96 101 105 110 113 116 118 117 116 118 121 123 126 127 128 128
67 67 68 67 69 68 67 69 74 70 71 70 72 72 72 71 72 72 73 73 74 75 76 76 76 77 80 83 87 91 94 96 99 104 110 113 115 116 115 115 118 122 126 128 131 129 126 127 128
63 64 65 63 65 66 65 67 67 68 68 69 69 68 69 70 71 74 75 75 77 78 78 79 81 83 87 90 93 97 101 104 109 115 117 118 116 115 118 121 125 128 130 131 129 128 126 122 120
62 62 63 62 65 64 66 65 64 65 67 71 71 69 69 71 74 76 78 78 79 81 81 82 84 88 92 96 100 104 108 113 119 120 120 117 119 123 125 129 131 131 128 129 130 124 120 120 116
59 61 62 62 63 63 63 66 66 66 68 71 72 71 71 74 77 79 81 81 82 83 84 87 90 93 98 103 107 111 116 120 121 120 120 123 126 129 132 132 128 130 131 127 123 121 116 112 109
58 59 61 62 63 62 63 66 71 70 71 71 70 70 73 77 78 79 82 84 85 86 89 92 96 100 104 109 114 118 119 120 120 123 126 129 132 133 129 130 133 129 125 123 120 114 109 104 99
56 59 60 62 63 64 67 60 68 74 73 74 73 74 78 79 80 79 81 84 88 91 94 98 102 106 112 116 117 118 119 122 126 129 133 135 131 128 133 133 128 125 122 117 112 105 101 96 94

GFSSGP_250_spd_054.txt.gz
Wind_Speed
25 23 21 19 17 16 15 14 14 17 17 16 17 17 16 15 16 16 18 21 22 23 25 26 26 27 30 33 35 36 36 38 41 43 43 45 45 47 48 48 49 49 46 42 40 37 34 33 33
29 26 22 23 22 18 19 17 17 21 21 22 22 21 19 20 22 22 21 23 25 26 27 27 28 31 36 37 38 38 40 42 44 46 47 48 48 50 51 49 50 47 43 39 38 35 34 34 33
34 31 29 28 25 23 21 22 21 24 24 24 23 21 23 24 25 26 25 26 29 28 29 32 35 39 39 41 41 41 43 45 48 50 51 49 51 53 55 52 50 46 41 38 34 34 34 33 32
39 36 34 33 30 29 28 27 24 27 26 26 26 25 25 26 27 29 29 31 31 32 34 37 39 40 41 41 42 44 47 48 50 52 53 53 54 57 55 53 49 44 42 35 34 33 32 31 30
41 38 37 36 34 32 32 31 28 29 30 29 28 29 30 29 31 33 34 36 37 39 39 41 42 41 41 43 45 46 49 51 52 53 56 57 58 57 55 52 48 46 38 37 32 28 25 21 19
41 40 39 37 35 34 34 34 32 32 34 33 32 32 34 34 34 37 40 41 41 42 43 44 43 45 45 46 47 49 51 53 55 55 55 56 56 57 53 49 46 44 40 36 31 20 17 13 12
43 42 42 41 37 37 37 37 35 35 36 37 36 36 37 38 38 42 44 44 46 44 46 46 48 49 48 49 51 52 54 57 57 58 57 55 57 54 51 48 45 42 39 31 24 21 19 16 15
46 43 42 45 41 40 39 40 39 39 38 41 42 41 40 42 43 44 46 49 48 49 48 50 51 51 52 51 53 57 59 60 60 58 57 56 55 53 50 47 43 39 33 27 25 23 21 19 18
49 46 45 48 43 43 43 43 43 43 42 42 42 44 46 46 47 49 49 51 52 53 55 54 55 55 54 55 59 61 63 63 59 56 55 56 55 52 49 45 41 37 33 29 27 27 25 24 23
49 50 48 49 47 46 47 47 47 47 46 47 48 47 47 48 50 52 54 55 52 54 57 60 60 59 60 60 64 65 66 60 59 55 57 58 54 51 49 45 40 37 34 33 31 31 30 30 28
52 52 53 54 52 53 51 50 53 53 51 51 52 53 52 52 52 55 57 58 58 57 59 60 59 61 66 67 67 68 64 61 60 58 58 60 55 52 49 45 42 39 37 36 35 35 36 34 34
57 56 53 53 54 54 53 51 53 54 54 55 55 55 54 54 56 59 60 61 60 61 62 62 62 65 68 71 70 66 63 61 60 60 62 62 57 54 52 49 45 41 40 40 41 40 41 40 39
57 56 55 55 54 54 54 53 54 55 56 56 58 60 60 61 60 61 63 65 65 65 66 68 69 70 70 69 68 66 64 65 65 63 65 62 58 55 52 51 49 48 45 45 45 45 45 46 45
57 56 57 57 56 56 57 58 57 57 59 60 62 62 62 63 63 64 67 69 69 70 71 71 71 69 69 67 67 67 66 71 71 69 65 62 60 57 54 52 51 50 50 49 51 51 51 50 49
60 58 59 57 56 58 59 61 60 60 61 62 63 62 64 66 67 68 70 71 71 71 71 69 69 70 69 70 71 71 75 76 71 68 66 64 61 59 56 56 54 53 52 54 55 56 58 58 55
60 61 61 61 61 61 60 63 62 63 63 65 68 68 67 69 69 68 69 70 70 68 69 70 71 71 72 74 77 77 74 73 71 70 69 66 63 60 59 59 59 58 57 59 59 59 58 59 60
64 61 62 62 62 63 63 66 65 67 67 66 68 69 69 70 70 68 67 69 71 71 70 72 74 77 77 77 79 77 77 77 75 74 71 67 63 63 63 63 63 63 64 64 64 64 62 63 63
63 65 63 62 63 65 65 66 66 68 69 68 69 70 71 71 70 70 69 69 70 74 78 80 79 79 80 81 81 82 81 79 76 72 70 67 65 65 66 67 67 68 69 70 68 67 68 68 69
61 63 63 62 63 65 66 66 69 70 71 70 67 67 70 71 71 71 73 75 78 80 81 82 82 82 83 85 83 81 78 75 73 71 69 69 69 70 70 71 71 72 72 73 73 73 73 74 74
56 56 58 60 57 51 53 58 61 60 64 65 65 67 69 72 75 76 80 82 83 83 84 85 85 85 83 83 80 77 76 75 75 74 74 74 73 74 75 75 76 77 78 79 80 80 80 80 81
58 59 60 60 61 60 59 61 64 65 66 68 68 71 74 78 83 85 83 83 83 85 86 86 84 82 80 79 77 76 76 77 77 78 78 79 79 80 80 81 81 82 83 83 84 85 85 85 88
60 59 57 57 61 62 64 60 70 69 72 74 76 78 81 83 83 84 85 85 86 85 83 81 80 80 78 78 77 77 77 78 80 81 83 84 85 85 86 86 87 88 88 87 86 87 89 91 93
62 64 64 65 63 64 70 67 74 78 79 80 82 81 81 83 84 84 84 84 84 84 82 81 81 80 80 80 79 79 80 81 82 84 85 86 88 90 91 91 91 91 90 90 92 94 96 99 101
66 67 67 68 71 72 75 74 77 79 81 81 82 83 84 83 84 83 83 82 83 83 82 81 81 81 81 82 83 82 83 84 85 86 88 89 90 91 92 92 93 94 96 99 101 104 107 110 112
71 75 75 74 74 75 76 76 77 79 82 84 85 84 84 83 83 83 84 84 84 82 82 82 83 85 85 86 86 86 88 89 90 91 91 91 92 94 95 97 100 102 105 108 111 113 115 116 117
74 74 74 73 74 76 79 79 81 82 82 83 82 83 83 84 85 86 85 83 82 83 84 85 86 87 88 90 91 93 93 93 93 93 94 95 97 98 101 103 106 109 112 115 117 119 121 123 124
74 75 77 77 78 78 80 81 82 81 80 80 80 80 81 82 81 81 82 83 85 86 87 87 88 90 92 93 93 93 94 95 96 98 99 100 103 105 108 111 113 115 118 120 122 123 125 126 125
74 75 76 78 78 78 78 79 79 79 78 77 78 78 79 79 80 81 83 84 87 89 89 90 92 92 92 94 96 97 98 100 103 105 108 110 112 114 116 117 118 120 121 123 123 123 123 122 123
67 69 70 72 73 73 73 75 75 76 77 76 75 77 78 80 81 83 84 87 89 91 92 92 94 95 97 99 101 103 106 108 110 111 113 114 115 117 118 120 120 121 121 121 121 123 123 122 121
64 66 67 68 69 69 71 70 73 72 72 72 75 78 80 82 83 84 87 89 91 92 94 96 97 100 103 105 107 109 110 110 111 113 114 116 118 119 118 117 117 118 120 120 119 118 117 115 113

GFSSGP_250_spd_057.txt.gz
Wind_Speed
27 24 21 20 17 17 18 19 20 17 15 17 17 17 16 17 18 19 21 23 24 26 27 28 29 30 30 33 36 38 38 38 39 41 42 43 46 49 49 48 48 49 49 45 41 36 35 33 31
30 28 26 24 20 18 18 21 20 19 17 20 20 20 23 22 22 24 25 26 27 30 31 31 32 34 35 37 38 38 39 41 42 42 44 47 49 52 53 51 52 50 47 42 39 38 34 31 32
35 32 29 27 23 22 22 22 22 21 21 22 23 25 25 25 25 28 29 30 32 32 34 35 37 39 39 40 39 42 44 44 44 46 47 50 52 54 54 55 53 49 45 42 40 35 34 33 33
40 38 34 32 30 27 25 25 25 25 26 27 27 28 29 29 29 30 31 33 35 36 38 41 41 43 42 41 43 45 46 47 47 48 52 54 57 58 56 55 52 48 45 42 39 37 33 34 32
45 43 40 37 35 33 31 31 30 31 30 31 32 31 31 33 32 33 35 36 38 40 43 43 44 44 43 44 46 48 48 49 50 52 55 57 59 58 56 54 51 49 46 43 40 37 32 29 23
45 45 44 41 39 39 37 35 34 35 33 33 35 34 34 36 38 39 40 41 43 44 47 47 46 45 46 48 50 51 52 52 54 57 60 61 60 57 54 54 52 50 47 44 40 35 30 26 23
46 46 46 45 43 43 40 38 38 38 36 36 38 37 37 39 41 43 45 46 47 49 49 50 49 49 49 51 53 55 54 55 58 60 62 63 59 56 52 52 52 49 46 44 40 35 31 28 25
49 48 47 48 46 44 41 41 39 40 40 40 41 42 41 43 44 45 47 49 51 53 52 53 54 54 55 56 57 58 58 58 60 64 64 63 59 55 54 53 53 50 46 43 40 35 32 30 29
52 50 49 49 47 45 45 44 43 43 43 44 45 45 45 46 48 49 50 51 52 56 56 56 57 58 58 59 61 62 61 63 65 66 65 62 58 53 53 54 56 51 46 43 40 36 34 34 33
55 54 52 51 49 48 47 46 47 46 45 47 49 49 49 50 52 53 54 55 57 59 60 62 62 62 62 62 64 65 66 68 67 65 63 61 57 55 56 57 57 51 46 43 41 39 39 38 39
57 58 57 55 52 52 51 50 50 50 50 50 52 53 54 56 56 56 58 57 58 61 64 65 65 67 67 67 68 69 69 68 65 65 60 60 59 61 63 58 55 51 47 44 42 42 42 42 43
61 58 56 58 56 55 54 54 55 55 54 55 57 58 58 58 60 60 59 60 62 65 66 67 68 70 72 72 71 70 68 67 67 64 64 65 65 68 63 57 54 52 49 47 46 45 45 46 47
63 61 59 57 57 56 56 56 58 58 60 59 59 58 58 60 62 63 64 64 65 66 68 70 72 72 72 72 71 70 69 68 67 68 69 70 68 65 63 60 58 57 54 51 49 49 49 50 52
65 63 62 60 59 59 61 60 59 58 60 61 62 63 62 63 65 66 67 69 70 71 73 73 72 70 70 71 71 70 70 70 73 74 72 73 72 68 68 65 62 59 56 55 54 53 53 53 54
64 63 63 62 60 62 62 64 60 61 61 63 65 65 65 67 68 69 70 73 74 75 74 72 73 73 72 71 70 70 73 78 76 76 78 77 76 75 72 68 63 59 56 57 57 57 57 59 59
64 65 64 62 62 62 63 66 62 63 63 64 65 66 68 70 72 73 75 75 75 75 76 75 73 75 74 73 75 77 79 77 79 78 80 79 77 74 69 64 61 60 59 60 60 61 62 63 64
65 63 64 64 64 63 65 69 65 67 67 69 70 70 71 73 73 74 76 77 77 77 74 74 75 75 77 80 81 81 82 81 82 82 79 75 72 68 66 65 64 64 64 64 64 65 65 67 68
64 64 64 64 65 64 65 68 66 66 69 70 70 71 73 75 76 74 71 72 74 75 75 75 78 80 86 83 82 83 84 84 82 79 75 72 70 69 69 69 69 68 68 68 68 68 69 70 72
61 61 61 64 65 65 66 70 71 69 71 71 72 73 70 68 69 67 70 73 75 78 80 82 86 85 85 84 85 85 85 82 78 77 75 73 73 72 72 72 72 71 71 72 73 73 73 75 75
64 61 60 61 62 61 65 67 70 70 69 70 68 70 71 74 75 74 75 77 79 83 86 87 86 87 88 88 87 86 84 81 80 78 76 75 75 76 76 76 77 77 77 78 78 77 77 78 81
64 63 64 64 66 65 63 58 63 66 65 65 68 70 71 73 76 77 80 83 86 89 88 89 90 91 90 89 86 85 83 81 80 80 80 80 80 80 81 81 82 83 83 82 83 83 82 81 84
61 62 61 63 62 59 61 57 66 65 68 69 71 73 74 77 83 86 88 89 88 88 91 93 92 91 89 88 86 84 82 82 82 82 83 85 85 85 86 86 87 89 89 88 88 88 87 85 83
62 62 62 63 64 64 66 64 68 72 74 74 74 76 81 86 88 89 88 90 92 93 94 92 91 90 88 87 86 84 84 84 85 86 87 88 89 90 91 92 91 91 91 92 92 93 92 91 89
66 66 67 66 66 66 70 71 73 75 76 78 80 85 87 86 88 90 92 94 94 94 92 92 90 89 88 87 87 87 88 88 89 89 89 91 92 94 96 95 96 96 96 96 97 98 98 99 98
66 68 69 69 72 73 74 74 78 80 82 85 88 86 87 88 91 94 95 94 93 92 91 90 89 89 87 88 89 90 91 92 92 93 94 95 95 97 99 101 101 103 104 104 105 105 105 106 107
72 72 72 72 74 76 77 78 82 85 88 86 87 89 91 93 94 94 94 92 91 90 90 89 89 89 90 91 92 93 94 95 96 96 97 99 100 101 103 105 107 109 111 113 114 113 114 115 115
71 73 76 79 80 81 83 84 83 85 86 89 91 92 92 92 91 90 90 89 88 88 88 88 89 91 92 93 94 96 97 98 99 101 104 105 107 108 110 113 114 116 117 118 119 119 119 120 121
74 76 78 79 79 80 82 84 86 87 89 90 89 88 88 88 88 88 87 86 86 87 89 90 91 93 94 95 96 99 101 103 106 108 110 112 114 117 118 119 120 120 121 121 122 122 122 122 122
73 75 77 79 80 81 80 82 83 84 84 83 82 84 86 86 85 85 85 85 87 89 91 92 93 94 97 99 102 105 107 109 112 115 117 118 117 117 117 118 118 118 118 119 119 119 119 118 117
68 69 70 72 72 73 76 75 79 79 79 79 81 82 83 83 83 83 85 87 90 91 92 94 96 99 101 104 107 111 115 118 119 119 118 117 118 119 119 119 118 116 114 113 113 112 110 109 108

GFSSGP_250_spd_063.txt.gz
Wind_Speed
30 28 25 25 25 24 23 22 22 21 20 19 19 18 20 20 19 19 20 22 22 23 24 27 30 32 34 34 36 38 39 40 41 40 41 45 46 46 44 45 45 48 52 48 46 44 37 32 28
33 30 27 25 23 22 22 20 20 21 21 21 21 20 21 23 23 24 24 26 25 26 28 31 33 35 37 38 40 41 42 41 42 42 47 46 46 46 48 49 49 53 52 50 49 45 39 34 31
38 35 32 29 27 25 24 21 21 23 25 24 22 23 24 26 26 26 28 29 30 31 33 34 36 38 40 42 43 45 45 45 45 47 47 47 48 48 52 53 56 53 53 51 49 44 39 37 36
43 40 37 33 33 31 29 27 25 23 23 22 23 24 25 27 29 29 31 33 34 35 36 37 39 41 43 45 46 48 48 49 48 48 49 49 49 55 57 58 58 55 53 51 48 44 42 43 39
48 45 41 39 37 34 32 32 30 27 27 27 28 26 28 30 31 33 35 37 38 38 39 40 42 43 46 48 50 50 51 51 51 51 49 52 56 59 59 58 56 54 52 49 45 45 46 47 41
52 49 46 43 42 39 37 35 35 32 31 31 32 32 32 33 35 37 38 40 42 42 41 43 45 47 49 52 53 53 53 53 54 54 55 58 60 60 59 57 55 52 51 46 46 49 49 47 40
55 53 50 47 46 45 43 41 38 37 35 36 36 36 38 38 39 40 42 42 42 44 44 45 48 51 53 54 55 56 56 57 58 57 59 60 61 60 59 58 55 53 48 49 49 48 46 44 41
57 58 56 53 51 49 47 44 43 42 41 41 42 42 43 43 44 45 45 45 46 47 48 50 53 55 57 57 58 58 59 60 61 62 63 63 61 61 60 60 57 54 52 52 50 48 50 46 42
60 59 60 58 55 52 50 48 45 43 42 42 44 45 45 46 47 47 48 49 50 51 53 56 56 57 58 58 61 61 62 63 63 65 65 63 63 61 60 60 57 56 56 56 55 53 49 46 43
62 61 61 60 57 57 53 50 49 47 46 46 45 46 46 47 49 50 51 52 54 55 57 59 60 61 61 61 63 64 65 66 67 66 65 64 62 62 60 59 61 62 60 58 56 54 54 51 47
62 63 64 62 61 59 56 55 53 51 50 49 49 49 50 51 53 55 55 56 57 59 61 63 65 64 63 64 66 67 68 69 68 68 68 63 62 61 61 62 67 63 60 59 59 57 54 50 46
64 63 64 64 63 62 59 58 58 55 54 54 55 54 55 56 57 58 59 59 61 62 65 66 66 67 68 69 70 70 69 68 69 68 63 66 64 61 65 68 65 65 64 63 60 57 54 50 47
65 65 65 63 64 64 63 62 61 59 57 57 57 58 60 61 61 61 62 64 65 65 66 67 68 70 71 72 74 73 72 72 70 65 67 66 64 68 72 68 68 67 66 65 62 58 53 51 50
67 66 64 65 65 64 63 65 63 60 60 62 62 63 64 64 64 65 65 65 67 69 70 70 71 72 74 74 74 75 75 73 70 72 71 70 72 75 72 71 72 70 69 66 63 59 56 53 52
68 66 66 67 65 63 64 67 64 63 63 63 64 63 63 64 65 66 68 70 70 71 72 73 75 75 73 74 76 75 74 71 72 72 73 77 80 77 77 76 74 72 70 66 63 61 59 57 56
68 65 68 67 63 65 65 68 64 64 66 67 67 67 68 68 70 71 72 72 73 73 75 76 75 76 76 76 75 74 73 75 74 76 81 81 80 80 79 78 76 74 72 68 65 63 62 60 58
65 63 66 65 67 65 65 68 66 67 67 69 69 70 70 71 72 73 74 74 76 75 76 77 77 76 76 75 73 74 77 78 78 84 84 82 84 83 82 81 79 76 73 70 67 66 64 63 61
66 68 69 67 63 60 60 67 68 68 69 69 70 71 73 73 74 75 76 77 77 76 76 76 75 75 75 75 77 81 84 83 84 88 86 87 87 87 86 83 80 76 73 71 68 68 67 66 65
73 70 69 68 65 63 65 68 69 66 70 71 72 73 74 76 77 78 78 77 75 76 75 75 75 77 80 81 85 87 86 87 92 91 91 91 92 90 87 83 79 76 75 74 72 71 70 70 69
68 72 74 72 68 67 60 63 66 65 65 67 69 71 74 76 79 79 78 77 77 76 77 79 80 82 84 87 90 90 91 93 95 94 95 95 93 89 84 81 80 79 78 76 74 73 73 74 75
66 64 64 65 67 65 65 67 71 70 70 70 71 72 72 74 76 78 80 80 80 80 80 82 84 87 92 92 93 95 96 98 98 98 99 96 91 86 84 83 82 80 78 78 79 79 78 77 81
63 65 66 66 67 68 69 66 71 69 69 72 73 74 75 75 75 77 79 81 81 84 85 88 90 92 94 96 97 99 103 101 102 101 98 93 89 87 86 84 82 82 82 83 84 85 84 83 84
64 63 63 63 66 67 71 70 72 71 69 71 73 75 76 75 77 79 81 83 87 89 89 91 95 97 99 100 101 104 104 104 102 97 94 91 91 89 87 86 87 87 88 89 90 91 93 95 95
63 64 64 64 62 60 64 66 67 71 74 76 76 77 79 80 82 83 85 88 91 94 96 98 98 99 102 104 106 107 106 101 98 95 93 92 91 91 91 92 93 94 95 97 99 100 100 101 102
62 63 64 65 67 68 70 70 71 72 74 76 78 80 82 83 85 88 91 94 96 97 98 100 102 104 106 106 106 104 102 99 97 95 94 93 93 95 96 97 99 101 103 104 105 106 108 111 113
62 64 65 65 67 68 70 71 74 76 78 80 82 84 85 88 91 93 96 97 98 100 101 103 105 106 105 104 102 100 99 98 97 96 96 97 98 99 101 104 106 107 108 110 112 115 118 119 118
64 65 66 65 65 67 71 74 76 78 80 81 82 84 86 88 91 94 96 98 100 101 102 102 102 101 100 99 99 99 98 98 99 100 102 103 105 107 108 110 111 113 116 118 120 120 121 121 121
64 65 66 67 67 70 72 74 77 79 80 82 85 87 89 91 93 95 96 97 98 98 98 98 98 97 98 99 100 100 101 102 104 106 109 111 113 114 114 116 118 120 122 122 122 122 123 121 119
65 66 68 68 69 70 73 75 79 80 82 84 86 88 89 90 91 93 93 93 94 94 94 95 97 99 99 100 101 104 106 108 111 113 115 116 117 119 121 123 122 122 123 121 118 116 115 114 111
66 67 69 69 70 72 74 76 80 81 82 83 84 87 88 88 88 88 89 90 91 94 96 97 98 99 102 104 107 110 113 115 117 118 120 122 123 123 123 123 120 115 113 113 112 110 110 107 105

GFSSGP_250_spd_066.txt.gz
Wind_Speed
33 29 30 29 29 29 29 29 26 27 28 27 26 25 24 22 21 21 20 21 21 22 23 23 26 29 31 34 36 37 38 39 40 39 41 41 41 41 41 41 45 47 48 47 45 43 41 39 34
37 34 32 32 31 31 32 30 30 30 28 27 25 25 25 23 23 24 24 25 24 25 25 27 31 32 34 37 39 40 41 43 44 44 44 43 44 43 45 47 49 47 47 47 46 45 42 38 35
42 38 36 33 31 31 29 29 27 26 27 27 25 25 26 26 25 25 27 27 28 29 30 32 34 35 37 39 40 42 44 46 46 46 46 46 48 47 50 50 50 47 49 49 49 47 42 37 38
45 42 39 36 34 31 30 29 28 27 27 27 27 26 26 26 25 27 28 30 31 32 33 36 37 38 40 40 43 45 47 48 49 49 49 49 50 51 53 53 50 51 50 51 49 47 42 41 39
49 47 44 42 37 37 33 31 31 30 30 29 28 27 28 28 28 30 31 33 34 36 37 39 40 42 43 44 46 49 50 51 51 51 52 52 52 55 55 52 52 53 51 53 50 47 44 42 40
50 50 50 47 44 41 39 37 35 34 34 34 33 32 32 32 32 34 35 37 38 39 40 42 43 44 46 48 50 52 52 53 53 53 54 55 56 57 56 55 55 52 53 52 48 48 46 45 44
56 53 52 51 49 47 45 43 41 39 38 39 38 37 36 36 37 38 38 40 41 42 44 45 45 47 49 51 54 55 56 56 55 56 58 58 59 59 57 58 54 53 53 52 51 52 51 50 46
59 58 56 54 54 50 50 48 46 44 44 44 42 41 41 41 40 42 42 42 43 45 46 46 48 50 52 54 56 57 58 58 58 59 61 62 63 60 60 58 55 55 54 53 54 56 53 49 47
61 61 61 58 57 54 52 53 50 48 48 48 48 47 47 46 46 47 48 49 50 50 49 50 53 53 55 57 58 60 60 60 62 62 63 65 63 62 61 56 57 57 58 57 59 55 53 52 50
62 62 63 61 59 59 57 54 53 53 52 52 51 51 50 51 51 53 54 53 53 53 54 55 57 59 59 59 60 61 62 63 64 65 66 65 65 63 59 59 61 60 61 60 62 59 56 54 53
64 63 63 64 63 61 59 59 58 56 56 55 54 54 54 53 54 55 56 56 57 58 59 59 62 62 62 63 63 64 65 66 67 68 66 67 66 64 61 62 63 63 64 66 62 61 59 55 54
68 65 64 64 64 65 64 62 59 59 58 57 56 56 57 57 57 58 59 60 61 61 63 64 64 65 64 65 67 66 67 68 69 67 68 68 67 64 63 65 63 66 67 65 65 64 62 58 55
71 68 66 64 64 65 66 64 64 61 59 59 59 60 61 61 61 62 63 64 65 65 66 66 66 67 69 70 71 71 71 72 71 70 70 68 66 65 67 66 68 71 69 67 67 66 63 61 58
72 72 69 66 67 67 66 67 68 65 63 64 64 64 64 65 65 65 66 66 66 66 66 68 70 71 73 74 74 75 75 75 74 73 71 70 68 70 72 70 72 74 72 72 71 68 66 62 57
69 72 71 69 68 67 68 69 67 66 65 66 66 67 66 66 66 66 67 68 68 69 71 72 73 75 74 75 77 77 77 76 74 73 73 73 74 77 77 76 78 81 78 75 75 72 67 62 58
67 70 73 71 69 67 68 69 68 67 66 66 67 67 68 68 69 70 72 72 72 74 75 75 76 77 78 78 79 76 75 74 74 75 77 77 80 82 81 81 84 85 82 80 78 72 66 62 60
64 67 72 77 74 68 66 66 66 66 66 68 68 68 68 69 69 71 72 73 74 75 76 78 79 79 80 78 77 76 75 76 78 80 80 81 86 85 85 88 88 87 85 83 76 70 67 65 63
64 66 65 71 72 70 67 68 69 66 62 63 65 69 71 72 71 73 74 74 76 78 80 81 81 79 77 81 79 79 80 80 81 84 84 88 89 89 91 90 91 89 86 80 75 72 70 69 67
68 65 66 65 72 69 71 69 66 61 61 61 62 64 66 69 70 71 72 74 75 74 76 78 78 79 81 80 83 83 83 84 86 88 90 93 93 95 94 95 92 88 84 79 76 74 73 71 68
68 68 69 71 66 72 72 75 73 72 69 69 69 69 70 70 70 72 74 74 76 77 79 80 82 81 82 85 86 87 88 89 90 92 93 96 98 97 97 95 94 89 84 81 78 75 73 72 72
67 69 68 69 72 70 69 72 75 76 76 76 74 73 72 75 76 77 77 79 79 80 81 83 85 87 87 87 89 90 92 92 94 98 98 98 98 99 98 95 90 86 83 81 80 78 75 74 76
67 67 68 68 69 68 71 74 77 77 78 77 76 76 76 77 78 78 79 81 84 85 85 86 87 88 90 91 93 96 99 101 101 101 101 101 101 98 94 92 90 87 85 84 83 81 81 82 81
66 66 66 66 67 65 68 67 69 70 71 71 73 75 77 79 82 84 82 82 85 84 86 88 91 94 96 97 98 100 102 102 102 102 103 101 98 95 94 92 90 89 88 87 87 88 89 90 91
65 63 62 63 64 65 69 71 69 72 75 75 74 74 74 76 77 82 86 86 87 89 91 94 96 99 100 100 101 101 103 104 104 102 100 98 97 96 95 94 93 92 93 94 94 95 97 99 100
65 64 63 62 62 63 67 68 69 69 70 72 73 74 77 81 84 86 88 90 93 96 97 98 98 98 99 101 102 103 103 103 101 100 99 98 97 97 97 97 97 98 99 101 103 105 106 108 108
66 64 63 62 62 63 65 66 70 73 75 76 78 80 83 84 87 89 91 93 95 97 97 99 100 101 102 102 102 102 101 100 99 99 99 99 99 99 100 101 103 106 108 110 111 111 113 115 116
66 65 64 62 62 63 65 67 68 72 75 76 77 80 82 85 87 89 92 95 96 97 98 99 100 102 102 101 101 100 100 100 100 101 101 102 103 104 105 109 111 112 114 116 117 118 119 119 119
66 66 65 64 63 65 66 68 70 73 75 76 79 82 85 87 89 92 94 95 97 98 99 101 101 101 101 101 101 101 101 101 102 103 105 106 108 111 113 116 117 118 118 118 117 116 114 112 112
67 67 66 66 66 67 69 70 75 76 77 80 83 85 87 89 91 94 95 96 98 100 100 100 100 101 101 102 103 104 104 105 107 109 111 113 115 117 119 120 119 117 115 112 111 111 109 109 108
66 67 68 68 69 70 72 74 77 78 81 83 85 88 90 92 93 94 95 98 98 98 100 101 102 103 104 105 106 108 110 112 114 116 118 120 121 120 118 115 112 112 112 109 109 107 106 106 107

GFSSGP_250_spd_069.txt.gz
Wind_Speed
37 33 31 31 34 33 31 28 27 27 23 27 29 27 28 28 26 25 24 24 22 21 22 23 24 25 28 31 34 36 38 39 40 40 41 42 42 42 41 42 42 45 42 42 43 42 44 46 41
42 37 35 33 33 31 33 33 30 30 28 30 31 31 30 29 29 28 27 26 27 26 26 27 28 29 32 34 37 39 41 42 43 44 45 45 45 45 44 45 47 47 44 46 45 44 45 50 44
45 43 39 36 34 32 34 34 35 36 33 32 34 34 32 29 28 28 28 28 28 28 29 30 31 33 35 38 40 41 43 44 45 46 47 47 47 47 48 49 49 48 47 49 49 47 46 50 46
49 47 45 40 37 36 34 35 38 38 36 37 36 31 28 28 26 27 27 27 28 30 32 33 34 37 39 41 42 42 45 46 47 49 49 49 49 50 51 52 51 50 50 52 52 49 48 49 48
53 51 49 47 43 40 38 36 37 37 37 34 31 29 27 27 28 28 27 29 31 33 36 37 39 41 42 44 44 46 47 49 50 51 51 52 51 52 53 54 54 51 53 54 50 49 50 52 52
55 54 52 50 48 45 42 41 38 38 37 36 35 33 32 31 32 32 32 34 35 37 39 41 43 44 46 47 49 50 51 52 52 53 53 54 53 54 56 57 55 53 55 52 50 52 53 54 53
57 58 55 55 52 49 46 46 43 43 42 41 39 37 37 37 37 37 37 39 40 41 43 45 47 48 49 52 52 53 54 55 56 55 56 57 56 57 59 59 57 56 55 54 52 53 55 56 54
60 59 60 57 56 54 52 50 48 47 47 46 44 42 42 42 42 42 42 42 43 45 47 48 50 51 55 54 55 56 58 60 59 58 59 59 59 60 62 60 59 58 56 54 54 56 57 59 54
62 62 61 61 59 55 56 56 53 50 50 51 50 49 47 47 47 46 46 45 46 47 48 50 52 55 55 56 58 59 62 62 61 60 62 61 62 64 64 62 61 60 58 53 57 58 57 55 55
65 65 65 63 63 61 59 57 57 55 54 53 54 52 51 51 51 52 52 50 49 51 54 55 57 57 58 60 61 63 63 63 62 63 64 65 66 67 66 65 63 62 59 56 58 60 58 57 57
66 68 68 67 65 64 63 62 60 59 58 58 56 57 56 55 55 55 55 55 56 59 58 58 60 62 63 63 65 65 65 65 66 67 68 69 70 69 69 67 64 63 61 61 63 59 58 62 61
67 70 71 69 68 66 65 65 64 63 63 63 60 60 61 61 60 60 61 61 62 63 64 64 65 66 67 67 66 66 67 68 69 70 71 72 73 73 70 68 66 65 64 64 64 61 62 65 64
68 70 72 72 71 69 67 67 65 65 65 64 63 64 64 63 63 63 62 63 62 64 66 68 68 68 69 69 70 70 71 72 73 73 74 75 73 71 68 68 68 66 66 68 66 65 69 69 69
71 67 69 72 73 71 70 69 68 67 67 67 69 68 67 66 66 66 67 68 68 69 69 69 69 70 71 73 73 74 76 76 77 77 78 76 73 71 72 70 70 69 70 71 71 72 73 72 70
71 71 69 68 73 73 72 71 71 70 69 68 68 69 70 70 69 70 71 71 70 71 72 72 72 72 73 74 76 78 78 80 79 79 78 77 75 75 73 73 73 73 74 74 78 76 77 74 74
66 67 66 68 69 69 72 73 70 71 71 70 71 71 70 69 69 70 71 72 71 71 72 73 75 75 76 78 80 81 80 80 80 78 78 79 79 77 77 77 77 78 80 81 78 81 80 79 77
64 63 62 63 60 66 70 57 54 55 61 66 68 69 70 71 71 70 72 72 73 74 75 75 75 75 77 77 78 78 79 80 80 82 81 80 81 81 81 82 84 83 81 86 86 84 84 82 78
61 62 59 58 58 59 69 72 74 74 70 70 69 67 66 65 64 65 69 71 69 67 69 73 74 76 77 79 80 82 83 83 82 82 84 85 84 85 86 86 85 88 92 92 89 86 86 82 78
65 61 60 59 56 54 62 69 76 74 74 69 70 69 66 62 59 62 63 66 69 72 75 76 78 81 83 83 85 85 84 85 86 86 87 88 87 87 89 92 94 96 94 91 90 89 86 83 78
67 65 63 60 60 56 57 66 73 75 74 76 73 70 68 68 69 70 73 76 78 80 79 81 84 84 83 85 86 87 88 88 90 91 91 92 95 98 97 98 97 95 94 95 92 89 82 80 79
67 68 66 64 63 61 63 63 65 65 74 73 74 76 79 81 82 82 83 85 85 86 86 86 86 87 88 89 89 90 92 92 94 96 97 99 99 100 98 98 99 99 98 95 91 87 84 81 81
70 70 69 67 67 68 68 67 69 67 71 72 74 76 77 79 80 83 85 80 79 81 83 85 86 87 88 90 94 95 97 98 99 101 100 100 99 100 100 101 100 98 95 92 91 89 87 85 83
69 73 72 70 68 70 73 73 74 74 74 74 75 75 77 79 79 79 81 82 84 86 85 84 87 90 93 97 99 101 103 105 104 102 101 102 102 102 101 100 98 96 95 93 92 91 90 88 87
71 74 74 71 69 67 70 73 75 71 70 70 71 71 75 77 80 83 85 84 84 85 88 91 94 97 100 102 103 103 103 103 103 103 104 105 104 102 102 101 99 98 96 94 93 92 92 93 94
72 75 74 72 69 68 67 69 69 74 76 77 77 77 76 77 80 83 86 90 92 95 96 97 97 99 100 101 104 104 104 106 105 106 106 106 106 105 103 102 101 100 98 97 97 97 99 101 103
72 74 74 70 70 67 67 67 66 70 71 72 74 77 79 82 85 87 89 91 93 95 95 97 99 101 102 104 104 106 106 107 108 108 108 107 106 106 104 103 103 102 103 103 105 106 108 110 111
71 72 73 69 69 68 67 67 66 70 70 71 73 75 78 80 82 85 89 91 93 95 98 100 103 105 106 107 108 108 109 110 111 111 110 109 109 108 107 107 107 108 110 112 114 115 115 116 116
70 72 70 68 68 69 70 70 68 73 73 73 76 79 81 83 86 89 91 94 97 100 103 106 108 109 110 110 111 112 112 112 112 112 112 111 111 111 111 112 114 116 118 119 120 120 119 116 112
65 68 68 68 69 70 72 72 72 75 76 78 81 83 85 88 90 92 96 99 103 105 108 109 110 112 112 114 115 115 115 115 115 115 115 115 116 118 120 121 122 122 122 122 120 117 116 115 113
62 65 67 68 68 72 74 75 76 78 80 82 84 87 89 92 95 98 101 104 106 108 109 111 112 114 115 116 117 117 117 118 120 121 123 124 125 126 126 125 124 122 119 118 117 116 113 110 108

GFSSGP_250_spd_075.txt.gz
Wind_Speed
46 45 44 40 38 35 36 37 35 35 33 30 29 26 27 26 25 24 25 23 25 26 27 27 26 25 24 26 27 28 28 29 34 37 39 40 40 39 40 42 43 44 44 43 41 41 41 39 40
44 46 45 43 40 39 35 38 36 38 37 33 31 23 23 29 26 27 26 29 29 31 30 29 29 29 28 29 31 31 32 33 37 40 42 43 44 42 41 44 46 47 46 45 43 43 44 41 43
49 47 47 46 44 40 40 37 36 38 38 36 35 31 24 27 28 28 30 34 35 34 32 32 31 31 31 32 32 34 35 37 40 43 43 46 46 46 45 47 48 49 48 47 45 45 46 44 45
50 51 49 50 46 45 45 40 38 38 40 41 39 36 31 27 30 32 33 36 35 36 36 32 31 31 32 33 35 37 38 41 43 45 46 48 48 49 49 50 50 51 50 49 48 47 48 47 46
53 51 53 51 50 50 48 47 45 40 39 39 39 38 39 37 34 34 36 39 35 28 28 30 31 32 33 35 36 39 41 44 46 48 49 51 52 52 52 52 53 53 52 51 50 50 51 49 47
56 55 57 52 53 51 53 51 50 46 42 39 40 40 40 41 41 40 39 35 32 28 30 31 32 34 36 37 40 42 45 47 49 50 53 55 54 54 55 55 53 55 53 53 53 53 52 51 48
60 57 57 58 58 58 52 49 53 52 50 43 42 43 42 44 43 44 41 36 36 33 34 35 35 37 39 41 44 46 48 50 52 53 57 58 59 56 57 57 57 57 56 56 56 56 55 53 48
63 59 60 60 60 57 57 54 55 53 55 50 46 48 45 43 45 44 41 38 41 41 39 41 40 42 43 44 46 48 50 51 53 57 60 60 60 60 59 60 61 60 59 59 59 59 57 52 48
66 60 64 63 62 61 60 61 58 55 54 54 52 52 52 47 47 47 47 45 45 46 46 44 45 44 45 47 49 51 53 54 58 60 62 61 62 63 64 64 63 61 61 62 61 60 57 53 51
65 67 67 67 62 64 64 64 64 60 58 57 56 56 56 54 52 52 51 50 51 51 50 49 50 51 49 52 53 54 57 59 61 62 65 65 66 66 66 65 64 65 65 63 62 59 57 56 57
69 67 72 66 63 66 66 65 63 62 61 61 60 60 59 58 57 55 55 54 53 54 53 54 54 57 56 58 59 61 63 64 66 67 67 68 68 67 67 68 67 68 65 65 63 63 63 60 56
68 69 68 69 65 66 69 67 67 62 63 64 64 64 64 63 63 62 59 57 57 57 58 57 59 61 62 63 65 66 68 68 69 70 70 69 69 70 68 67 69 67 68 69 68 69 65 61 59
67 70 64 62 60 66 68 68 69 68 66 64 63 65 67 67 67 67 64 64 63 64 64 64 64 66 67 68 68 70 72 71 72 72 71 71 68 65 65 68 73 72 71 73 74 68 67 63 59
65 68 66 62 60 59 67 68 71 69 66 68 66 66 67 67 69 69 68 69 69 72 70 68 69 71 73 72 72 73 72 72 71 71 67 61 63 67 70 74 75 76 78 76 73 72 67 64 65
60 61 64 61 61 64 64 65 70 69 69 67 67 66 67 68 68 71 70 70 71 74 75 72 71 74 76 71 68 67 67 68 68 63 66 69 70 74 81 80 83 82 80 75 72 71 70 69 69
64 64 59 58 61 59 61 66 67 70 71 69 68 69 70 70 71 72 72 69 71 73 75 74 72 75 69 69 65 63 62 67 69 71 72 75 84 85 84 88 83 78 77 74 75 75 76 75 75
62 61 62 62 59 59 62 60 61 66 66 67 66 67 66 64 70 74 66 63 60 56 62 55 51 58 60 62 66 67 69 73 73 77 85 88 87 89 87 82 82 81 81 80 80 82 83 83 81
64 62 63 62 65 62 59 58 61 62 62 64 65 64 56 57 63 62 64 67 67 60 56 61 62 66 67 69 72 79 79 80 84 89 92 93 91 87 84 86 87 86 85 86 86 87 87 87 87
67 67 65 63 60 62 63 61 61 61 62 62 63 66 69 65 64 63 68 68 66 61 67 68 73 76 74 75 78 83 87 89 90 88 88 88 87 87 89 91 91 91 91 93 94 92 92 94 94
72 68 65 63 61 61 63 64 64 60 57 55 56 59 62 63 57 65 68 69 71 74 76 79 79 80 81 82 84 84 84 87 88 87 89 91 91 94 96 97 97 96 98 100 100 99 98 96 96
73 70 65 64 62 61 63 63 61 59 56 55 57 60 65 66 66 69 72 69 69 69 71 77 83 85 86 84 85 87 88 89 90 91 94 96 97 99 101 102 104 105 104 105 103 101 99 98 98
70 70 69 67 62 64 63 61 65 64 62 62 65 61 67 69 63 61 62 63 71 75 76 81 82 83 86 89 91 91 91 93 95 99 101 102 104 108 109 108 108 109 107 106 105 104 104 102 101
74 71 71 70 71 66 63 65 66 64 63 65 65 63 64 66 65 68 62 61 68 74 75 81 82 85 88 91 95 97 98 100 103 104 104 106 108 108 109 110 109 109 111 111 111 110 109 108 106
79 76 76 75 71 66 71 68 64 65 65 66 67 70 71 72 69 71 75 75 80 86 89 93 94 95 96 99 102 104 106 107 106 105 105 106 107 109 110 111 112 113 114 114 115 115 113 113 111
79 79 79 75 71 68 70 68 68 71 67 67 68 69 69 70 74 78 82 87 91 94 95 96 97 97 98 98 98 99 101 105 107 109 111 112 113 114 115 116 117 118 119 120 120 119 119 118 116
78 76 74 72 71 68 69 71 73 73 71 71 70 72 72 74 77 78 80 84 87 89 91 93 95 98 99 101 103 105 107 109 112 114 116 118 120 122 122 124 124 125 125 125 125 123 121 121 121
76 75 74 73 71 68 66 68 71 73 75 76 74 75 76 77 80 81 82 85 88 91 93 96 99 101 104 107 110 111 113 115 117 119 121 124 125 126 128 130 131 130 129 129 129 128 126 124 120
73 75 72 71 70 67 67 63 65 69 73 75 75 75 78 80 80 81 83 86 90 93 97 100 103 106 109 112 115 117 119 120 121 124 126 128 130 132 133 134 134 135 132 128 123 119 116 114 110
72 72 70 69 67 67 66 61 62 64 66 70 73 76 78 78 80 81 84 88 92 96 99 103 106 110 113 116 119 120 121 123 126 128 131 133 135 135 136 134 130 126 124 119 115 116 109 104 101
73 72 70 68 66 67 66 63 65 66 68 73 74 72 74 77 80 82 87 90 93 98 102 106 109 111 112 114 117 121 123 125 129 132 134 134 133 131 133 128 124 121 120 118 112 104 95 93 93

GFSSGP_250_spd_078.txt.gz
Wind_Speed
48 47 47 45 44 38 38 38 36 35 35 33 34 31 27 30 36 37 33 33 31 29 26 28 28 29 29 29 29 29 29 30 31 32 33 35 38 38 39 39 40 42 42 43 45 44 43 41 42
49 49 47 48 46 43 42 40 41 38 39 37 38 36 33 27 27 30 27 30 33 30 30 31 32 33 32 32 32 32 32 33 33 35 36 38 40 41 42 43 44 44 45 46 48 48 45 43 43
50 50 51 48 48 45 48 43 43 42 41 40 40 41 38 34 26 29 31 29 32 34 34 35 36 37 36 34 35 35 35 36 36 37 39 40 42 44 46 47 48 49 49 49 51 51 47 46 46
55 53 52 53 49 49 50 48 44 44 43 43 41 42 42 38 32 30 32 31 33 36 37 39 41 41 39 36 37 37 38 38 39 40 42 43 44 46 49 51 51 53 52 53 53 53 49 48 48
57 58 56 54 52 52 51 51 49 47 47 46 42 42 44 42 42 38 34 33 35 37 39 41 40 37 37 36 36 37 39 40 42 44 45 46 47 49 52 53 55 55 56 56 56 56 52 50 50
57 60 59 56 53 55 56 53 54 50 48 47 46 44 43 42 42 43 41 40 38 40 41 39 39 37 36 36 37 38 41 43 45 47 47 49 50 52 55 56 56 57 59 58 59 56 53 53 52
59 60 61 60 54 55 57 53 57 56 51 51 51 47 44 42 44 43 42 43 44 45 43 39 38 38 37 38 40 42 44 47 47 48 49 51 53 55 57 59 60 59 60 59 58 56 55 55 54
64 62 61 63 63 57 56 57 57 58 57 57 56 53 49 46 45 46 47 47 48 48 47 45 44 42 42 44 46 46 47 48 50 50 51 53 55 58 60 62 61 63 61 60 58 58 57 56 54
66 66 66 64 63 61 58 62 59 62 59 58 61 61 57 52 49 48 48 50 51 51 49 49 49 48 48 48 49 51 51 53 52 54 55 57 61 62 65 65 66 64 62 60 58 58 58 60 58
69 69 71 67 64 64 60 60 63 63 59 62 61 57 59 59 57 53 51 54 55 56 54 55 55 54 54 56 56 56 56 56 58 61 62 64 65 66 67 67 66 65 62 58 58 57 61 63 61
69 69 69 71 64 66 68 63 60 64 63 63 63 62 61 61 61 58 56 58 61 60 59 59 59 59 59 59 60 60 61 62 64 65 66 67 68 68 68 68 67 63 57 56 56 59 62 64 66
66 68 68 70 68 67 68 69 67 64 66 69 65 64 67 65 62 61 60 61 63 63 64 64 64 63 63 64 65 66 65 66 67 70 71 71 70 70 68 67 62 57 58 59 61 65 71 70 73
61 64 67 63 66 68 69 70 68 68 67 66 65 68 66 64 64 62 63 63 64 65 66 65 67 66 67 66 67 69 70 71 72 71 72 70 70 68 69 64 62 63 65 66 68 74 74 76 70
61 63 67 67 66 66 67 68 69 71 68 66 66 68 72 69 66 64 64 64 65 67 69 68 70 72 72 71 71 73 73 74 75 75 70 69 65 67 69 68 69 72 71 73 78 77 75 74 70
62 60 62 66 63 63 60 63 62 58 64 69 68 68 70 69 67 67 67 69 70 71 70 70 70 73 74 74 74 73 73 68 67 65 67 70 76 72 72 76 77 75 78 84 84 79 77 72 72
64 61 61 59 60 60 63 62 63 62 61 66 71 72 71 69 68 69 67 68 71 72 71 72 74 75 76 75 75 75 70 69 69 75 74 73 74 76 78 79 79 84 88 87 83 77 76 75 75
68 59 59 60 59 59 58 56 59 62 64 64 65 65 67 68 69 71 69 70 72 73 72 74 75 74 77 74 72 72 70 68 69 71 77 80 80 84 87 88 89 89 87 82 81 80 81 81 80
59 63 60 61 63 62 59 61 61 60 59 62 64 65 67 66 68 70 71 73 74 75 72 76 74 75 73 76 77 74 75 75 76 78 82 83 87 88 89 87 87 86 85 86 86 86 85 86 87
63 61 66 67 66 67 66 63 61 65 64 67 65 66 65 65 66 65 69 72 75 76 77 79 77 79 79 78 78 79 80 82 85 87 88 87 86 87 88 88 89 89 91 93 94 93 94 94 91
69 68 64 65 66 64 64 66 67 65 64 63 65 65 62 61 63 67 66 70 70 73 74 74 75 76 76 78 81 83 85 86 87 87 87 88 91 92 94 96 97 99 99 99 100 101 101 100 100
71 68 64 64 65 66 65 65 66 64 65 67 70 66 62 63 62 64 64 68 68 69 71 73 72 69 72 77 79 81 82 85 86 88 89 93 96 102 103 104 105 106 106 105 105 105 103 102 103
72 70 66 66 67 66 68 65 65 64 64 66 67 63 60 58 60 61 62 65 71 71 74 73 66 73 74 71 79 82 81 86 93 97 101 104 107 108 108 108 107 106 107 107 108 108 108 106 106
73 70 68 70 70 70 67 64 67 64 65 68 67 64 65 65 66 66 67 69 72 73 73 77 79 84 85 90 87 94 94 101 104 105 107 107 107 108 110 110 111 112 113 113 114 114 114 112 111
73 71 71 73 73 69 68 69 65 65 67 67 68 67 66 66 68 70 73 75 78 79 80 81 83 86 92 96 100 104 108 109 108 107 108 109 110 111 113 115 116 118 119 119 118 118 118 118 118
77 74 76 76 73 65 70 67 65 68 70 70 70 68 68 70 71 73 74 76 77 79 81 83 85 87 91 95 99 103 105 107 109 110 112 114 115 117 118 119 120 121 121 121 121 121 122 123 123
77 78 79 77 73 75 72 65 65 65 67 69 69 70 72 75 77 78 79 80 82 85 87 89 92 95 97 99 101 103 105 107 109 112 115 118 121 123 124 125 124 124 125 126 126 127 127 128 128
74 77 79 77 76 73 71 70 66 68 70 71 71 72 76 79 80 82 84 86 88 89 91 94 96 98 100 101 102 103 105 108 111 114 118 121 122 123 124 126 127 129 130 131 131 130 129 125 122
71 74 76 77 75 73 70 68 67 67 68 68 69 71 72 74 77 80 82 84 87 89 92 94 97 99 100 102 104 106 108 111 114 116 117 119 123 125 127 130 130 130 131 131 130 128 125 118 114
67 67 70 73 73 72 69 66 66 65 65 68 70 71 71 70 72 74 79 83 87 89 91 94 96 98 101 103 105 107 109 111 114 117 120 123 125 126 128 130 130 131 133 131 125 122 118 117 116
66 65 66 66 67 68 65 62 63 63 65 67 69 70 71 73 76 80 83 83 84 86 89 93 95 97 99 101 105 109 112 116 120 123 122 124 127 129 134 134 136 137 134 130 120 118 116 106 96

GFSSGP_250_spd_081.txt.gz
Wind_Speed
48 48 48 48 47 48 46 42 39 39 37 36 34 34 37 35 32 33 36 37 37 35 34 35 34 32 31 32 33 34 34 34 35 34 35 36 36 35 35 37 38 37 40 41 43 45 48 50 48
49 50 48 49 49 50 48 44 43 42 42 40 39 37 38 39 35 30 29 32 36 37 39 39 37 34 35 36 37 38 38 38 38 38 38 38 38 37 37 40 41 42 43 45 46 47 50 52 51
52 51 50 49 50 50 50 47 46 46 46 44 42 40 41 41 41 38 32 30 32 32 34 38 39 38 38 40 41 42 44 41 40 40 41 40 40 40 41 44 45 46 47 48 49 51 52 54 52
56 54 51 51 50 53 52 52 48 48 47 45 45 44 44 43 43 43 41 35 33 33 34 35 37 40 43 44 45 47 46 43 42 42 42 41 42 44 46 47 48 48 49 51 52 53 55 56 54
58 58 54 54 52 55 55 52 53 51 50 50 49 49 46 47 46 44 46 43 38 40 40 37 39 42 42 44 45 46 44 43 42 41 41 43 44 47 48 49 50 49 52 54 54 55 57 58 55
59 58 57 58 54 56 55 55 53 54 52 50 51 49 48 47 45 46 45 48 46 43 41 40 41 43 43 42 43 43 43 40 41 42 44 47 48 50 51 52 51 53 54 56 58 58 59 59 54
59 58 59 58 58 58 60 55 56 55 55 53 52 51 49 48 48 45 45 47 47 45 47 48 48 48 48 46 45 43 43 42 44 46 48 50 51 53 55 54 54 57 58 60 60 59 59 58 54
62 65 61 60 59 62 61 60 57 57 57 59 55 53 51 51 51 50 49 49 50 49 48 48 49 48 48 48 47 47 47 47 49 50 51 53 54 56 57 58 59 61 61 61 62 60 59 55 53
64 64 65 66 63 61 60 60 61 57 60 58 59 58 57 55 54 54 54 53 52 51 51 52 53 53 53 52 51 53 53 53 54 55 57 57 59 60 61 62 63 63 64 64 62 61 56 52 52
61 63 69 71 68 65 61 63 63 61 59 58 58 58 57 58 59 59 59 59 59 57 55 55 57 56 57 58 58 58 60 61 61 61 61 60 61 63 65 67 68 69 66 66 64 59 55 56 54
62 60 67 72 72 69 68 65 65 64 65 62 61 59 56 59 59 62 63 66 66 66 63 61 61 60 60 61 62 62 64 64 65 64 64 65 66 68 70 70 71 69 68 65 63 62 62 59 61
67 69 67 68 72 72 71 70 68 67 68 67 63 59 63 62 61 64 66 67 67 67 67 66 67 66 66 66 66 66 67 67 67 70 71 72 72 71 73 74 71 70 66 64 64 67 63 64 68
78 73 69 70 72 69 69 71 72 70 66 69 67 64 62 62 63 63 66 68 69 71 71 70 70 70 70 70 70 70 70 71 72 74 75 75 75 74 72 73 73 67 69 72 72 69 70 69 72
72 69 63 65 67 60 65 66 69 71 70 68 70 71 69 66 63 64 66 69 71 70 69 66 64 67 70 70 71 71 71 73 75 77 78 77 76 76 77 72 73 76 74 68 70 69 72 75 75
67 67 63 58 58 58 54 61 66 66 68 69 69 72 72 68 67 68 66 64 67 70 66 64 63 66 70 71 72 73 75 76 78 79 76 79 80 81 77 79 74 72 72 72 75 79 81 85 83
67 67 64 62 57 53 51 54 52 58 65 66 67 67 71 73 73 72 70 70 71 70 70 66 70 71 71 72 74 75 78 80 80 81 80 78 75 75 79 76 74 75 78 79 83 88 85 82 78
65 61 61 64 62 58 53 55 58 57 56 59 62 62 63 65 69 70 68 69 71 72 72 70 75 76 77 77 80 80 81 81 81 75 75 79 83 85 84 81 81 82 86 87 87 84 83 80 82
61 61 61 63 64 59 57 56 56 62 61 58 59 61 62 63 65 67 70 72 73 73 68 74 78 80 78 76 77 76 77 76 75 82 85 85 86 87 90 90 91 91 89 86 84 85 86 87 90
66 65 64 66 68 62 59 59 59 56 57 60 60 58 63 66 66 70 71 69 68 70 73 75 76 77 77 75 76 78 81 82 83 84 87 88 89 91 88 89 90 89 88 89 90 93 95 101 100
63 63 62 64 67 67 65 62 63 60 58 57 58 58 58 60 63 66 67 68 68 69 70 73 75 77 77 78 80 80 80 83 85 82 83 79 84 86 89 90 92 92 97 101 104 105 107 106 103
58 56 57 63 68 68 68 64 63 63 63 63 63 63 62 63 63 64 66 67 68 68 71 73 75 77 77 77 79 80 78 77 77 87 86 89 91 91 95 97 99 108 107 112 115 111 107 108 107
60 61 62 59 65 66 66 65 65 63 62 65 66 65 65 66 67 68 68 67 68 69 70 70 72 74 76 78 80 81 81 82 86 88 94 97 99 101 108 106 112 116 118 116 116 115 113 112 112
68 65 64 58 60 67 64 59 62 62 63 67 66 63 64 66 67 68 69 70 71 72 73 75 77 79 81 83 84 87 88 90 92 95 98 100 102 104 107 110 114 116 116 117 117 117 117 117 117
70 67 63 64 62 62 64 62 63 62 66 66 65 65 66 66 67 69 71 72 73 74 75 77 80 83 85 89 91 93 95 96 98 100 103 105 108 111 113 113 114 115 115 116 117 118 119 120 120
71 67 67 67 62 59 63 63 63 66 67 66 66 67 66 66 67 68 70 72 75 77 79 80 83 87 91 94 96 97 99 101 104 107 109 111 113 114 114 113 113 114 114 116 118 120 122 124 124
69 70 68 66 64 63 68 63 63 67 67 66 67 67 68 68 69 71 73 75 77 79 81 83 87 91 93 95 96 98 100 103 106 109 110 112 112 113 113 113 114 116 119 120 122 124 126 126 128
66 69 70 68 67 68 66 63 64 66 67 67 66 66 67 68 69 72 75 78 79 80 81 83 85 87 88 90 94 98 101 104 107 108 108 109 110 112 114 117 119 121 124 125 126 128 130 130 129
63 64 68 69 73 70 67 66 66 68 68 68 67 68 70 71 73 75 77 78 79 80 81 84 86 88 92 96 99 101 103 103 103 105 107 109 113 115 117 117 118 121 125 129 131 133 133 129 128
64 64 64 66 70 67 67 67 70 71 70 70 70 72 72 72 72 75 76 77 79 81 84 87 90 93 96 98 97 98 99 102 105 107 111 112 111 112 115 119 123 127 130 133 133 133 131 131 126
61 61 63 63 64 63 63 64 67 68 70 70 71 72 72 71 73 74 75 77 80 82 85 89 93 94 91 91 95 99 102 105 106 107 108 113 116 118 121 124 127 131 135 136 133 129 124 114 106

GFSSGP_250_spd_084.txt.gz
Wind_Speed
50 49 48 48 47 49 47 45 46 43 40 37 36 35 35 36 35 37 37 34 35 37 36 36 36 35 36 36 36 35 35 35 36 38 40 39 39 38 39 37 35 36 37 38 42 42 42 43 47
52 52 51 49 49 50 49 48 48 48 46 43 40 39 37 37 36 37 36 35 32 32 35 38 39 39 40 40 39 37 37 38 40 41 43 43 42 41 40 39 38 39 41 44 45 44 45 47 50
53 53 53 51 51 51 51 52 52 50 49 47 44 43 42 40 41 40 39 40 38 35 32 35 37 39 41 42 42 40 39 41 43 46 48 46 44 43 43 41 40 42 43 45 47 48 49 50 52
53 54 53 52 53 52 53 52 53 54 50 49 48 47 44 44 43 42 42 44 43 41 38 36 37 37 36 37 38 39 44 46 47 49 50 48 45 45 42 42 43 45 46 47 49 50 51 53 55
54 54 54 53 54 55 55 53 54 54 53 52 50 49 47 46 44 45 45 46 46 47 45 42 42 43 43 42 40 40 40 42 45 45 44 44 44 42 41 44 46 47 49 51 52 53 54 55 57
55 55 53 55 54 56 55 56 55 56 55 53 54 51 50 48 47 48 49 48 47 47 48 47 46 45 45 44 43 44 45 46 45 46 45 44 43 44 45 48 49 51 52 54 56 56 57 57 59
58 56 54 56 56 56 58 57 58 56 56 55 53 56 55 53 51 49 49 49 49 47 47 48 49 47 48 48 49 49 49 48 49 49 48 47 47 48 50 51 54 56 57 57 58 58 60 60 60
63 57 55 55 58 59 58 58 60 60 56 58 56 53 55 56 55 54 53 52 51 49 49 49 50 50 50 50 50 52 52 51 50 50 50 52 52 54 55 57 58 59 59 61 62 64 64 62 59
63 57 55 56 60 63 60 59 57 63 62 60 58 56 56 56 57 57 58 58 57 55 54 53 54 53 52 53 54 54 54 54 53 55 56 57 58 59 59 60 60 63 64 66 66 66 66 62 59
62 57 56 62 63 63 59 61 63 60 63 63 65 60 57 56 57 59 58 60 61 59 58 57 58 57 57 57 58 59 59 59 60 60 62 64 65 65 66 67 67 67 69 70 69 67 67 64 59
60 59 62 64 64 63 62 63 64 64 60 65 64 63 62 60 57 58 62 60 62 63 63 62 62 62 63 63 63 64 65 66 66 66 66 67 67 69 69 70 71 72 71 71 68 69 68 66 65
59 61 66 67 67 61 59 60 66 66 69 67 62 63 64 64 62 59 58 60 62 63 64 65 63 56 57 61 63 65 67 67 68 69 68 68 70 71 72 74 74 73 72 68 70 71 69 70 68
64 62 67 65 64 62 61 56 54 65 70 71 67 64 64 67 66 65 64 63 65 66 66 66 66 68 69 66 68 69 70 69 68 69 70 71 73 74 74 75 75 75 72 74 74 72 72 71 72
73 71 70 70 65 63 60 58 57 62 66 71 71 67 66 67 67 67 65 64 64 65 66 67 67 67 70 70 71 69 69 68 68 70 73 74 74 74 76 76 77 76 74 76 75 75 75 72 71
81 77 75 72 71 70 64 62 55 59 63 64 68 69 68 71 69 68 67 67 67 68 66 66 67 67 68 67 66 68 69 72 72 74 75 75 76 78 78 80 81 77 74 75 76 74 76 75 75
87 83 79 77 78 73 69 56 50 50 52 56 57 65 67 69 71 69 70 73 74 75 73 72 62 60 67 69 67 67 69 73 75 76 76 76 78 79 76 76 77 74 77 78 81 81 80 83 84
78 78 80 82 81 78 72 59 54 50 49 48 51 56 64 64 66 65 65 66 68 68 71 65 61 65 70 73 73 72 71 73 77 75 77 77 78 79 79 80 82 83 85 85 87 87 86 85 85
73 68 67 72 76 76 67 61 54 55 53 56 57 58 56 55 62 65 65 66 64 66 60 61 61 64 67 71 72 72 76 78 79 81 82 81 79 81 83 84 85 87 91 87 84 81 84 85 87
79 71 64 64 68 68 60 58 57 57 54 53 57 59 59 59 57 55 60 62 63 65 64 65 68 73 75 73 74 78 79 78 79 81 81 82 84 86 86 87 87 85 84 89 88 89 91 91 94
76 73 65 60 63 66 63 55 57 61 59 57 55 56 59 59 61 62 64 65 66 68 67 66 67 69 69 72 76 77 79 80 82 83 84 84 86 88 88 86 89 90 94 95 95 97 98 98 99
70 72 67 61 60 64 65 62 58 59 56 56 58 58 56 54 56 60 62 62 63 63 61 61 66 68 71 72 75 77 80 81 83 84 85 87 89 91 94 94 97 98 100 101 102 102 102 104 107
66 71 69 62 61 66 66 62 62 63 61 57 60 60 60 59 58 61 61 63 65 65 64 66 68 70 71 74 77 80 82 84 87 90 92 95 96 98 99 100 102 103 104 106 107 109 110 111 111
67 68 69 68 64 63 64 62 60 61 62 62 63 64 61 60 63 65 66 67 69 70 70 71 72 74 77 79 82 84 86 87 89 91 92 94 97 98 99 100 101 103 106 107 109 112 113 112 110
63 69 71 70 63 55 59 58 57 59 63 64 63 62 61 61 64 65 66 67 68 69 71 72 74 76 77 80 83 85 87 88 90 93 94 96 96 97 99 102 105 108 110 111 111 110 110 111 112
63 69 68 65 55 47 55 48 51 58 62 64 63 64 65 65 64 65 65 67 69 71 72 74 76 78 81 83 84 87 89 90 93 95 96 98 100 103 105 108 108 108 108 108 110 113 115 116 117
60 63 62 60 55 53 57 48 54 58 62 62 62 62 62 62 62 63 66 67 69 71 73 76 77 79 83 86 89 90 91 92 94 97 100 102 104 106 105 104 105 109 111 113 114 116 117 119 121
55 56 58 58 57 56 54 53 58 59 59 60 60 61 61 62 64 65 67 70 71 72 73 77 81 83 86 87 87 89 92 94 97 99 102 104 101 101 104 106 108 111 113 115 117 119 122 123 125
49 55 54 56 58 58 56 57 60 61 59 59 60 61 62 64 64 65 68 71 73 75 78 80 83 85 86 87 90 92 95 98 101 100 96 99 102 104 107 109 112 115 115 116 117 120 124 125 127
48 51 53 54 57 59 59 61 62 61 60 59 60 61 62 64 66 69 72 75 77 79 81 82 82 84 87 91 94 96 98 96 93 96 98 101 106 109 111 112 114 114 117 121 122 125 125 125 125
51 49 50 52 55 55 59 64 61 60 59 60 62 63 65 67 70 73 74 76 78 78 78 80 83 86 89 92 93 90 89 92 94 98 103 107 107 107 108 112 116 120 124 127 130 131 129 124 119

GFSSGP_250_spd_087.txt.gz
Wind_Speed
51 49 48 45 48 51 48 48 48 46 46 45 42 40 36 34 34 36 35 35 36 35 33 34 37 36 35 35 35 35 36 35 34 32 32 34 36 37 40 42 42 42 39 37 37 38 40 40 40
55 51 50 50 49 52 53 52 50 50 48 48 48 44 42 39 36 36 37 37 37 36 36 36 32 33 34 38 38 38 39 39 39 36 35 37 38 40 43 44 45 43 41 41 39 41 43 43 44
49 47 50 50 52 53 54 56 55 52 51 50 49 48 47 45 43 40 39 39 39 40 41 39 36 31 32 35 37 38 39 41 41 40 40 42 41 43 46 46 44 43 44 43 42 45 44 47 49
50 47 43 43 47 50 54 56 57 57 54 53 52 50 49 49 48 45 44 43 42 42 43 43 42 40 36 36 38 38 36 37 38 38 38 39 40 42 43 43 43 42 40 40 44 46 48 51 53
57 50 45 44 41 49 53 56 58 59 58 55 54 54 52 50 50 49 48 47 46 45 45 44 45 46 44 42 41 43 43 43 42 42 42 43 44 44 44 44 44 41 42 44 44 49 52 54 53
56 56 53 51 49 45 51 52 53 58 59 59 56 54 56 54 53 51 51 51 50 49 47 46 47 48 47 48 47 46 45 45 45 46 48 48 45 46 45 46 45 44 44 48 50 53 55 55 58
57 56 52 50 53 46 53 52 56 55 58 60 58 57 56 56 57 57 55 54 52 50 51 50 50 49 48 46 49 51 51 49 50 51 51 50 49 48 48 47 49 50 52 54 55 56 57 59 60
62 57 52 53 55 54 54 54 54 57 60 59 61 60 58 57 56 57 58 56 55 53 52 50 50 50 49 48 48 49 50 51 52 54 54 53 51 51 52 53 54 55 58 59 59 60 61 62 62
68 60 57 55 59 58 56 54 50 56 58 61 61 64 61 61 60 59 57 58 57 57 54 54 53 52 51 51 51 51 51 53 54 54 55 56 56 57 58 59 60 61 61 62 63 65 63 62 61
71 66 63 62 65 62 57 54 53 56 55 60 62 64 62 63 64 63 61 59 58 57 58 58 57 56 56 56 56 57 57 56 57 57 58 59 60 62 63 64 64 64 64 66 67 66 65 64 63
75 68 66 65 69 64 59 56 57 57 56 60 61 60 62 64 67 66 62 61 60 61 59 60 60 59 59 61 60 61 61 61 62 62 62 63 63 64 66 66 66 67 67 67 68 66 67 66 66
73 68 66 65 67 66 61 57 59 58 60 61 61 60 61 64 68 67 66 67 66 61 60 61 62 62 60 55 54 59 61 61 62 64 65 68 70 69 68 68 68 69 69 68 69 67 69 71 70
76 73 66 65 63 63 59 60 59 62 64 61 59 63 64 63 67 66 65 66 67 66 62 59 58 58 61 63 63 63 65 66 66 65 68 71 70 70 69 69 71 71 72 72 72 74 75 74 72
77 77 72 69 65 62 59 62 61 60 62 61 54 46 53 61 70 70 69 66 65 66 68 66 64 64 65 66 67 68 70 69 69 70 69 67 67 67 70 73 73 76 77 76 76 75 77 73 73
87 84 81 75 71 70 65 61 58 61 60 58 55 57 56 56 65 69 71 69 68 67 68 69 70 69 67 67 67 68 70 71 71 70 69 69 71 70 73 75 76 77 77 76 76 74 73 73 73
77 81 82 80 79 76 73 62 61 62 63 63 60 58 58 64 66 68 68 69 71 70 69 68 69 68 66 69 71 67 68 71 73 71 70 71 74 76 76 75 78 76 77 75 75 77 76 78 78
64 64 68 76 81 79 76 71 69 65 65 63 56 54 58 54 51 57 60 66 65 66 68 66 62 54 57 62 62 63 66 67 66 68 69 71 75 73 78 79 78 76 77 78 80 81 81 83 83
67 65 63 68 77 82 79 76 75 72 72 67 58 51 52 49 51 50 42 53 66 64 63 64 64 62 58 59 63 63 65 67 70 74 75 75 77 79 80 78 80 82 84 83 81 82 84 87 86
69 67 63 65 72 77 81 79 79 75 72 69 65 60 58 54 54 56 56 55 54 57 60 63 61 63 62 64 64 67 69 71 73 74 74 76 80 80 82 84 85 84 83 85 86 88 89 91 94
71 68 66 64 68 70 72 78 80 75 73 69 63 65 61 57 60 59 59 61 59 57 57 54 56 57 62 67 70 70 72 72 72 75 78 79 81 82 84 85 87 88 91 93 94 94 95 96 97
67 67 68 66 66 71 68 64 67 73 72 70 62 61 61 61 61 60 60 62 61 61 60 58 62 62 66 65 66 68 71 74 76 77 78 80 84 87 89 90 91 92 93 94 95 95 96 96 94
66 68 68 66 63 68 70 61 59 61 61 61 62 62 61 60 61 61 61 61 57 55 54 55 57 62 66 67 70 71 74 80 82 84 85 85 86 88 90 91 93 95 97 99 100 101 101 100 99
61 67 71 69 68 68 70 62 56 55 54 59 61 61 60 62 60 57 60 61 60 59 61 63 64 69 71 73 76 78 79 82 83 84 85 87 90 91 93 96 98 99 99 100 101 101 102 104 106
57 64 68 69 67 65 67 58 54 52 57 61 63 62 61 59 58 60 63 63 65 65 63 65 68 69 72 76 77 78 79 81 84 86 88 90 93 95 97 98 99 100 102 103 105 107 108 108 108
56 63 66 62 62 59 62 55 54 56 58 60 62 62 63 64 65 62 61 64 64 65 67 69 70 70 73 76 78 80 82 83 85 89 92 95 97 98 100 102 103 103 106 108 109 110 111 111 111
56 57 56 56 54 61 62 53 58 58 59 61 61 61 59 60 63 64 64 65 67 68 67 68 70 73 76 79 81 83 85 88 91 94 97 99 100 101 102 103 105 107 108 109 110 112 114 115 115
50 49 53 49 50 57 56 55 58 55 54 55 57 54 54 57 59 61 64 64 64 67 70 72 74 77 80 80 83 87 91 93 96 97 98 99 100 102 103 103 104 106 108 110 111 113 115 116 118
44 43 40 40 46 51 53 55 57 53 51 53 52 51 51 52 55 58 60 63 65 68 71 74 76 78 82 86 89 91 93 93 95 96 98 99 99 101 103 106 108 111 112 113 114 115 116 118 121
34 32 35 39 44 47 50 54 55 53 52 53 54 54 53 52 53 56 60 63 66 68 71 74 78 82 85 86 88 89 90 92 94 94 94 97 100 103 105 108 110 111 113 114 116 119 123 123 125
36 34 35 39 44 47 49 53 56 56 54 54 53 53 55 56 57 59 61 64 67 70 74 77 79 80 81 82 84 87 87 87 88 93 97 99 100 102 105 107 110 112 116 120 121 122 127 126 126

GFSSGP_250_spd_090.txt.gz
Wind_Speed
49 49 49 46 46 48 51 52 51 51 49 48 47 45 43 42 40 39 36 36 37 37 37 37 36 36 37 38 39 37 35 36 36 37 36 36 32 31 32 34 35 37 38 39 40 40 41 38 38
50 49 51 49 50 49 50 53 53 53 53 51 50 49 47 46 44 44 41 39 38 38 39 38 38 38 36 35 33 33 34 37 38 37 37 38 40 35 38 38 38 39 40 40 39 39 41 42 41
53 51 52 47 42 48 50 52 55 55 56 55 54 52 51 51 49 47 45 44 42 40 41 40 40 39 38 39 32 32 33 35 37 37 36 35 35 36 37 38 39 41 41 41 42 43 41 38 40
56 54 56 52 49 43 45 47 54 56 57 58 57 55 55 53 52 51 50 47 46 45 43 43 42 42 42 43 41 36 36 37 39 39 39 39 39 41 42 41 44 44 44 44 45 41 39 38 43
58 58 57 57 58 52 48 44 43 53 57 59 59 59 57 56 55 55 54 53 52 49 48 47 45 44 43 44 46 45 43 43 43 43 45 45 45 47 45 45 48 46 46 44 40 40 42 46 49
57 58 58 60 63 59 51 50 46 39 51 57 60 60 61 59 58 59 57 55 54 54 52 52 50 49 48 47 47 47 47 48 50 49 49 47 47 48 50 50 47 48 45 44 45 49 51 51 52
57 58 57 56 59 57 55 52 51 47 40 48 56 62 64 62 63 60 59 58 56 55 54 54 53 52 51 50 50 48 49 48 49 49 50 49 48 48 50 51 50 48 48 49 50 51 54 56 57
60 60 60 59 61 62 54 51 52 49 47 44 54 56 60 66 66 64 62 60 59 59 58 56 55 55 54 52 51 50 49 48 47 47 48 50 51 52 53 53 52 51 51 53 55 56 59 59 61
60 55 54 56 64 63 57 54 50 48 50 49 52 59 58 60 64 65 64 63 61 59 59 59 59 58 57 56 53 53 52 50 50 51 53 53 53 54 54 54 54 55 57 57 60 60 61 61 64
62 61 59 61 63 67 63 59 54 52 49 53 55 57 60 63 67 65 65 65 63 62 61 58 57 57 58 58 58 58 56 56 56 57 59 59 58 58 58 59 61 61 61 62 63 63 63 65 64
66 61 69 65 68 66 66 64 59 55 52 58 58 55 57 60 64 66 66 64 65 62 62 63 62 60 59 59 59 59 61 62 61 62 61 60 60 61 59 62 65 65 67 67 66 64 63 65 66
74 71 73 71 72 72 68 69 65 60 62 57 59 57 59 62 62 64 64 62 64 65 65 63 62 62 62 62 60 59 61 62 60 56 58 60 63 65 66 67 67 68 68 66 64 66 66 69 67
76 78 76 79 75 77 74 72 66 60 57 58 56 57 58 61 63 63 60 61 61 63 65 66 66 66 65 63 62 61 59 61 62 63 64 66 67 68 69 69 68 67 65 66 67 69 71 72 72
80 76 79 80 79 79 74 72 65 61 59 62 57 62 63 61 60 63 63 60 61 63 64 64 65 66 67 67 66 62 63 64 66 68 69 70 69 69 68 69 69 69 70 70 72 72 73 72 72
84 86 82 76 75 78 78 73 62 60 62 63 63 63 64 63 57 64 63 54 51 55 61 67 68 69 67 66 64 64 69 71 71 71 70 71 71 73 75 74 75 74 73 72 74 76 74 76 74
81 84 82 86 86 81 81 67 68 62 61 65 64 67 62 56 55 59 61 55 54 57 58 61 64 67 69 68 68 69 70 68 68 69 71 70 70 73 74 73 74 74 73 74 75 76 77 77 75
69 73 79 84 83 89 86 77 77 67 64 65 63 65 68 62 61 60 56 57 57 61 63 62 60 62 62 57 55 54 59 62 63 65 65 66 67 68 67 70 72 76 77 77 77 79 78 79 80
73 65 66 73 78 86 83 80 77 75 70 69 66 63 67 69 63 58 59 59 56 47 46 46 47 47 43 46 51 57 60 60 61 63 65 68 69 72 75 77 77 79 79 79 80 80 81 82 83
75 71 70 63 65 73 77 77 75 78 75 73 73 66 65 66 62 60 50 47 50 52 49 48 51 47 42 50 54 59 64 64 66 67 68 71 73 76 77 78 80 79 80 80 81 84 87 89 90
74 74 71 71 69 64 66 73 71 70 75 76 73 73 67 66 62 60 62 59 60 57 59 62 62 54 50 55 56 60 63 66 67 70 72 75 76 77 79 80 81 84 86 89 89 90 89 89 91
62 66 72 74 70 67 66 64 70 64 69 73 72 71 69 67 66 65 66 62 61 61 63 61 60 58 60 62 62 66 68 70 72 74 76 78 79 81 84 87 89 91 94 92 91 92 93 94 95
52 64 68 74 73 70 68 62 61 64 63 67 70 67 66 67 67 70 66 69 69 68 67 64 57 63 65 67 70 71 73 74 75 78 80 83 85 88 90 91 90 90 92 93 94 96 99 100 100
40 53 65 66 74 73 67 63 58 60 62 59 62 64 65 68 69 69 67 68 70 72 68 64 64 63 62 64 69 70 75 78 81 84 85 87 87 87 88 89 91 93 95 98 100 101 102 103 103
33 46 60 68 70 71 66 61 59 58 62 62 60 60 62 64 65 65 66 67 68 66 65 64 63 66 68 71 74 77 78 80 83 85 84 86 89 91 93 95 98 100 102 102 103 104 105 105 106
32 42 55 67 67 68 66 61 59 60 65 64 60 57 57 59 62 64 64 64 64 65 65 65 66 68 72 74 76 78 81 83 83 85 88 92 94 95 98 101 103 103 103 104 105 106 107 108 109
31 41 51 65 72 74 60 56 63 60 62 64 61 56 53 53 55 61 63 65 66 68 68 68 70 73 75 77 79 82 82 84 88 90 94 96 98 100 103 101 102 103 103 104 106 107 108 110 112
29 36 46 57 69 61 54 56 61 58 59 61 57 53 51 52 57 60 63 66 69 69 70 72 76 79 80 81 81 83 86 88 91 93 96 99 100 99 99 100 100 100 103 105 108 110 111 112 114
26 40 42 48 52 55 52 54 55 55 56 57 54 52 51 53 56 57 60 61 61 63 65 68 71 74 76 79 82 84 86 88 92 95 97 96 96 94 94 96 100 103 104 106 107 109 113 117 119
26 35 42 38 43 44 45 48 51 53 55 56 53 51 50 53 56 58 57 57 58 60 64 67 70 72 75 78 81 84 88 91 92 92 91 88 89 92 95 97 99 103 106 111 114 117 119 121 124
24 24 25 29 31 35 39 44 48 52 53 54 53 51 50 50 52 54 56 59 63 65 66 68 71 74 77 80 83 86 86 87 85 83 84 87 88 92 96 100 104 109 113 116 119 121 124 127 129

GFSSGP_250_spd_093.txt.gz
Wind_Speed
57 52 50 50 50 44 43 42 43 47 49 55 54 50 49 48 47 45 43 41 39 38 39 40 40 40 40 39 39 37 39 40 42 40 39 39 40 38 41 40 36 34 34 36 38 38 36 36 36
55 55 54 50 51 51 49 47 45 47 49 53 57 55 52 51 49 48 47 46 43 42 40 39 41 42 42 41 39 38 35 35 34 33 34 37 37 35 37 37 39 38 37 41 42 41 39 39 39
61 60 57 54 49 54 53 49 51 50 51 52 57 59 56 55 53 52 50 49 47 46 44 42 41 42 42 41 40 40 41 38 32 33 33 35 37 38 39 38 38 41 44 44 43 45 44 41 41
62 62 60 56 52 57 56 52 49 48 50 52 56 59 61 57 58 56 55 53 51 50 48 46 45 44 43 43 43 43 44 44 41 36 38 37 39 42 43 44 44 46 47 47 46 47 44 44 38
68 65 60 57 57 57 60 57 59 50 46 46 51 58 61 62 60 60 59 57 55 53 51 49 48 48 48 46 45 45 45 45 45 45 44 45 45 46 46 47 47 48 48 50 48 46 47 45 44
65 65 59 55 62 60 57 63 64 63 55 49 47 51 60 63 63 63 62 60 58 57 54 53 53 52 51 51 51 50 49 48 47 48 48 48 49 50 51 52 51 51 50 50 50 49 48 48 47
68 65 56 55 61 64 63 63 67 65 60 56 52 45 50 60 63 64 64 63 61 59 59 59 57 55 55 54 54 54 54 52 52 51 50 50 50 50 51 49 49 50 50 50 52 53 51 50 52
71 66 57 56 60 64 65 62 65 63 62 57 56 51 46 48 57 60 62 64 64 64 62 62 61 59 57 57 55 56 55 54 54 53 52 51 49 48 49 51 53 53 54 54 51 52 53 54 55
72 67 57 57 60 68 69 66 66 60 60 58 56 50 51 50 50 53 54 59 64 66 64 64 63 61 61 61 61 60 58 57 56 55 54 53 53 52 52 53 54 54 55 55 56 56 57 57 60
78 73 64 67 64 66 70 68 69 68 65 60 53 52 50 51 50 49 59 56 57 62 64 64 65 64 62 61 60 61 62 60 59 58 58 58 57 58 60 61 62 63 63 62 59 58 64 66 65
80 71 72 70 67 67 67 64 63 67 67 65 58 54 52 51 53 54 53 61 61 61 61 62 63 64 64 63 62 62 61 59 60 60 59 59 60 60 60 61 60 59 60 61 65 67 68 68 68
79 76 74 73 71 71 72 69 68 65 65 68 59 60 60 54 57 55 58 57 59 60 62 62 62 64 64 65 65 65 66 65 64 64 63 61 62 63 63 61 61 61 64 67 68 69 71 72 70
77 79 77 75 73 73 77 73 69 67 66 64 54 57 63 62 59 56 58 57 56 57 58 59 59 61 62 62 65 65 63 64 65 66 65 65 64 65 64 66 67 69 70 71 71 70 70 69 69
79 75 76 78 75 77 79 78 77 72 70 67 68 64 66 66 56 55 57 58 57 59 61 59 58 59 61 61 62 64 64 65 67 67 66 66 66 68 69 70 70 72 73 73 73 73 73 74 75
79 78 84 77 79 79 85 83 75 75 77 70 74 73 73 66 57 54 57 61 57 57 61 59 59 57 55 58 63 67 68 68 68 69 69 69 69 69 71 73 74 73 74 74 73 72 75 76 74
78 82 80 80 85 83 90 77 79 80 80 74 75 75 73 68 58 55 56 58 61 61 61 61 55 55 58 57 57 60 63 65 66 68 69 71 70 70 67 65 66 66 66 66 67 69 71 73 75
76 75 78 84 82 84 87 73 83 83 82 75 77 77 73 71 64 59 54 58 55 61 65 61 58 57 55 54 55 54 56 56 54 48 52 62 62 61 63 64 65 66 67 70 72 75 78 80 82
82 77 75 74 85 86 85 83 88 84 80 76 76 76 73 71 66 65 60 54 52 59 59 58 56 61 57 50 50 47 42 47 51 51 58 61 62 59 63 67 69 72 75 76 78 79 81 82 84
68 72 77 76 76 76 82 83 88 92 84 80 75 73 75 71 66 65 63 67 68 69 60 57 59 57 54 52 52 47 47 49 52 58 62 65 68 70 71 71 72 75 79 80 79 81 81 84 87
58 60 65 75 81 75 71 75 85 87 83 82 84 79 76 78 73 67 66 64 69 64 60 52 44 50 53 59 62 63 59 61 60 62 64 68 70 74 76 78 80 79 80 83 86 89 90 93 94
49 54 58 62 76 78 72 68 70 79 77 80 78 78 79 75 71 67 65 66 61 59 61 63 61 65 62 63 64 65 70 70 67 68 70 74 77 77 79 82 84 85 87 90 92 95 96 93 93
41 40 50 56 64 72 72 64 66 65 70 72 75 73 70 68 68 67 69 68 69 60 60 64 67 65 66 70 73 75 73 72 72 73 77 79 82 84 84 85 89 91 93 95 96 92 94 97 99
31 29 36 51 57 62 70 70 68 66 60 65 69 69 64 65 69 67 64 63 65 67 66 67 68 66 71 73 75 76 80 77 74 75 77 81 81 84 88 91 92 95 96 97 97 100 103 104 106
19 20 29 43 54 55 65 71 72 67 62 63 61 67 63 61 62 62 60 62 62 64 67 68 69 71 74 78 80 79 82 81 84 85 83 86 88 89 90 93 96 97 98 101 103 106 108 109 109
10 17 28 36 47 56 57 71 73 68 63 61 59 58 65 59 60 61 61 65 64 66 65 66 69 70 73 73 75 75 75 78 81 83 87 90 91 93 97 100 99 101 103 105 107 109 111 112 109
3 13 22 28 37 51 61 65 73 68 64 62 60 54 61 59 59 61 62 64 65 67 70 69 69 70 71 73 77 79 82 85 87 90 92 95 97 99 99 101 102 104 106 109 110 110 108 109 111
11 23 29 31 31 41 60 68 66 63 60 59 58 54 55 58 56 57 59 62 65 71 73 70 70 73 76 79 80 83 86 89 90 90 90 92 94 96 98 102 105 107 108 108 108 107 108 110 112
12 25 36 41 34 35 39 64 60 57 58 55 53 52 50 54 56 56 56 56 55 59 63 67 71 74 74 76 78 81 82 83 84 87 89 92 96 99 101 103 105 105 105 104 106 107 110 114 118
8 19 28 40 41 36 51 53 51 50 53 53 51 51 50 53 55 56 56 57 60 61 65 68 70 71 73 74 75 77 81 84 87 90 93 96 98 99 101 101 100 100 100 104 109 113 117 121 124
4 10 26 24 32 35 41 43 42 45 47 46 47 47 48 50 54 56 55 57 59 61 64 68 69 70 73 75 77 80 84 87 90 93 93 95 96 96 94 95 96 98 103 108 112 117 121 124 126